GW0115 Weather Reports


Display with metric or nautical units.
time (UTC)temp
F
wind
direction
speed
MPH
gust
MPH
rain 1hr
in
rain 24hr
in
rain mn
in
humidity
%
barometer
mb
20260903103059 66 0 0.0 0.0 0.00 0.00 0.00 91 1013.3
20260903101557 66 0 0.0 5.0 0.00 0.00 0.00 91 1013.3
20260903100056 66 0 0.0 1.0 0.00 0.00 0.00 91 1013.2
20260903094608 66 0 0.0 0.0 0.00 0.00 0.00 91 1013.2
20260903093054 66 0 0.0 0.0 0.00 0.00 0.00 90 1013.0
20260903091603 66 0 0.0 1.0 0.00 0.00 0.00 90 1013.1
20260903090100 66 0 0.0 4.0 0.00 0.00 0.00 89 1013.4
20260903084600 66 0 0.0 6.0 0.00 0.00 0.00 89 1013.2
20260903083104 66 0 0.0 4.0 0.00 0.00 0.00 90 1013.3
20260903081555 66 0 0.0 3.0 0.00 0.00 0.00 90 1013.5
20260903080059 66 0 0.0 5.0 0.00 0.00 0.00 90 1013.5
20260903074557 66 0 0.0 7.0 0.00 0.00 0.00 90 1013.8
20260903073112 66 0 0.0 4.0 0.00 0.00 0.00 90 1013.7
20260903071602 65 0 0.0 3.0 0.00 0.00 0.00 90 1013.6
20260903070103 66 0 0.0 4.0 0.00 0.00 0.00 90 1013.6
20260903064558 66 0 0.0 0.0 0.00 0.00 0.00 89 1013.7
20260903063104 66 0 0.0 7.0 0.00 0.00 0.00 87 1013.9
20260903061600 66 0 0.0 4.0 0.00 0.00 0.00 86 1014.2
20260903060100 66 0 0.0 8.0 0.00 0.00 0.00 86 1013.7
20260903054553 66 0 0.0 6.0 0.00 0.00 0.00 85 1014.1
20260903053057 66 0 0.0 6.0 0.00 0.00 0.00 85 1014.2
20260903051556 66 279 0.0 7.0 0.00 0.00 0.00 84 1014.6
20260903050106 67 0 0.0 12.0 0.00 0.00 0.00 82 1015.1
20260903044600 67 277 1.0 6.0 0.00 0.00 0.00 81 1014.9
20260903043108 67 317 0.0 6.0 0.00 0.00 0.00 79 1014.5
20260903041555 67 282 2.0 10.0 0.00 0.00 0.00 78 1014.3
20260903040110 67 276 1.0 7.0 0.00 0.00 0.00 78 1014.7
20260903034559 67 0 1.0 15.0 0.00 0.00 0.00 78 1014.5
20260903033058 67 0 0.0 8.0 0.00 0.00 0.00 79 1014.6
20260903031555 67 0 0.0 12.0 0.00 0.00 0.00 80 1014.7
20260903030108 67 265 1.0 11.0 0.00 0.00 0.00 79 1015.0
20260903024554 68 268 0.0 10.0 0.00 0.00 0.00 76 1015.4
20260903023107 69 313 2.0 12.0 0.00 0.00 0.00 74 1015.4
20260903021556 68 0 0.0 15.0 0.00 0.00 0.00 74 1015.7
20260903020058 69 255 1.0 10.0 0.00 0.00 0.00 75 1015.9
20260903014602 69 0 0.0 8.0 0.00 0.00 0.00 76 1016.1
20260903013057 69 168 0.0 8.0 0.00 0.00 0.00 77 1016.5
20260903011558 69 0 0.0 6.0 0.00 0.00 0.00 79 1016.8
20260903004603 69 279 0.0 8.0 0.00 0.00 0.00 77 1016.5
20260903003055 69 0 0.0 4.0 0.00 0.00 0.00 78 1016.4
20260903001559 69 0 0.0 2.0 0.00 0.00 0.00 79 1016.3
20260903000105 69 0 0.0 1.0 0.00 0.00 0.00 80 1016.1
20260902234555 69 0 0.0 1.0 0.00 0.00 0.00 83 1015.7
20260902233101 69 0 0.0 5.0 0.00 0.00 0.00 80 1016.2
20260902231600 69 0 0.0 2.0 0.00 0.00 0.00 81 1015.9
20260902230104 69 0 0.0 6.0 0.00 0.00 0.00 81 1016.1
20260902224600 69 0 0.0 3.0 0.00 0.00 0.00 82 1016.7
20260902223116 69 0 0.0 1.0 0.00 0.00 0.00 83 1017.0
20260902221556 69 0 0.0 3.0 0.00 0.00 0.00 81 1018.0
20260902220054 69 0 0.0 0.0 0.00 0.00 0.00 81 1018.2
20260902214556 69 0 0.0 0.0 0.00 0.00 0.00 81 1018.4
20260902213054 69 0 0.0 0.0 0.00 0.00 0.00 80 1018.2
20260902211555 69 0 0.0 0.0 0.00 0.00 0.00 80 1018.0
20260902210058 69 0 0.0 0.0 0.00 0.00 0.00 82 1018.3
20260902204640 69 0 0.0 0.0 0.00 0.00 0.00 82 1018.2
20260902203106 69 0 0.0 0.0 0.00 0.00 0.00 83 1018.0
20260902201600 69 0 0.0 0.0 0.00 0.00 0.00 82 1018.4
20260902200106 69 0 0.0 0.0 0.00 0.00 0.00 83 1018.4
20260902194555 68 0 0.0 0.0 0.00 0.00 0.00 82 1018.5
20260902193059 68 0 0.0 0.0 0.00 0.00 0.00 81 1018.5
20260902191556 68 0 0.0 0.0 0.00 0.00 0.00 80 1018.7
20260902190108 69 0 0.0 1.0 0.00 0.00 0.00 78 1018.9
20260902184602 69 0 0.0 6.0 0.00 0.00 0.00 77 1019.1
20260902183111 69 0 0.0 3.0 0.00 0.00 0.00 77 1019.3
20260902181613 69 0 0.0 5.0 0.00 0.00 0.00 77 1019.0
20260902174601 69 0 0.0 1.0 0.00 0.00 0.00 77 1019.1
20260902173118 69 0 0.0 2.0 0.00 0.00 0.00 77 1019.3
20260902171606 69 0 0.0 1.0 0.00 0.00 0.00 77 1018.9
20260902170058 69 0 0.0 0.0 0.00 0.00 0.00 77 1018.9
20260902164607 69 0 0.0 1.0 0.00 0.00 0.00 77 1019.0
20260902163107 69 0 0.0 6.0 0.00 0.00 0.00 76 1019.3
20260902161615 69 0 0.0 3.0 0.00 0.00 0.00 77 1019.4
20260902160105 68 0 0.0 0.0 0.00 0.00 0.00 78 1019.3
20260902154604 68 0 0.0 4.0 0.00 0.00 0.00 78 1019.6
20260902153108 68 0 0.0 6.0 0.00 0.00 0.00 77 1019.7
20260902151556 68 0 0.0 4.0 0.00 0.00 0.00 78 1020.0
20260902150055 67 0 0.0 8.0 0.00 0.00 0.00 78 1020.1
20260902144551 67 0 0.0 7.0 0.00 0.03 0.00 78 1020.1
20260902143057 67 278 0.0 9.0 0.00 0.03 0.00 79 1020.2
20260902141554 67 0 0.0 6.0 0.00 0.03 0.00 79 1020.0
20260902140057 67 0 0.0 0.0 0.00 0.03 0.00 80 1019.9
20260902134557 67 0 0.0 7.0 0.00 0.05 0.00 80 1019.8
20260902133101 67 0 0.0 0.0 0.00 0.05 0.00 81 1019.8
20260902131553 67 0 0.0 1.0 0.00 0.05 0.00 81 1019.6
20260902130110 67 0 0.0 0.0 0.00 0.05 0.00 82 1019.3
20260902124600 67 0 0.0 0.0 0.00 0.06 0.00 85 1019.2
20260902123107 67 0 0.0 0.0 0.00 0.06 0.00 83 1019.4
20260902121556 67 0 0.0 2.0 0.00 0.06 0.00 84 1019.4
20260902114603 67 0 0.0 0.0 0.00 0.14 0.00 87 1019.2
20260902113058 67 0 0.0 1.0 0.00 0.14 0.00 85 1019.3
20260902111601 67 0 0.0 0.0 0.00 0.14 0.00 86 1019.3
20260902110100 67 0 0.0 3.0 0.00 0.14 0.00 86 1019.5
20260902104610 67 0 0.0 0.0 0.00 0.23 0.00 87 1019.1